This demonstration page uses our WeatherBlox Daily Observations layout. Learn more.

Left ArrowRight Arrow

38.89511, -77.03637

Hourly Observations for August 18, 2022

Temp ( °F °C ) Dew Point ( °F °C ) Humidity (%) Winds ( mph kmh ) Pressure ( in mb ) Visibility ( mi km ) Precip ( " mm )
12:52 am 00:52 Mostly Clear 69 20.6 61 16.1 75 75 W 3 6 29.97 1015 10 16 0.00 0.00
1:52 am 01:52 Clear 68 20 63 17.2 84 84 SW 3 6 29.97 1015 10 16 0.00 0.00
2:52 am 02:52 Clear 66 18.9 61 16.1 84 84 N 6 9 29.97 1015 10 16 0.00 0.00
3:52 am 03:52 Clear 67 19.4 60 15.6 79 79 N 3 6 29.96 1015 10 16 0.00 0.00
4:52 am 04:52 Clear 65 18.3 60 15.6 84 84 N 6 9 29.97 1015 10 16 0.00 0.00
5:52 am 05:52 Mostly Clear 65 18.3 59 15 81 81 N 6 9 29.97 1015 10 16 0.00 0.00
6:52 am 06:52 Sunny 65 18.3 59 15 81 81 N 8 13 29.98 1015 10 16 0.00 0.00
7:52 am 07:52 Mostly Sunny 69 20.6 60 15.6 73 73 N 7 11 30.00 1016 10 16 0.00 0.00
8:52 am 08:52 Mostly Sunny 72 22.2 61 16.1 68 68 N 6 9 30.00 1016 10 16 0.00 0.00
9:52 am 09:52 Mostly Sunny 75 23.9 61 16.1 62 62 NNE 6 9 29.99 1016 10 16 0.00 0.00
10:52 am 10:52 Sunny 79 26.1 63 17.2 58 58 N 10 17 29.98 1015 10 16 0.00 0.00
11:52 am 11:52 Sunny 81 27.2 60 15.6 49 49 NW 6 9 29.98 1015 10 16 0.00 0.00
12:52 pm 12:52 Mostly Sunny 83 28.3 59 15 44 44 NNW 6 9 29.98 1015 10 16 0.00 0.00
1:52 pm 13:52 Mostly Sunny 85 29.4 58 14.4 40 40 W 8 13 29.97 1015 10 16 0.00 0.00
2:52 pm 14:52 Mostly Sunny 86 30 58 14.4 39 39 WSW 13 20 29.96 1014 10 16 0.00 0.00
3:52 pm 15:52 Partly Cloudy 85 29.4 57 13.9 39 39 SSW 7 11 29.95 1014 10 16 0.00 0.00
4:52 pm 16:52 Partly Cloudy 87 30.6 57 13.9 36 36 NNW 7 11 29.95 1014 10 16 0.00 0.00
5:52 pm 17:52 Partly Cloudy 86 30 59 15 40 40 N 8 13 29.95 1014 10 16 0.00 0.00
6:52 pm 18:52 Mostly Sunny 83 28.3 58 14.4 43 43 NNW 7 11 29.95 1014 10 16 0.00 0.00
7:52 pm 19:52 Mostly Sunny 80 26.7 57 13.9 45 45 NW 6 9 29.96 1015 10 16 0.00 0.00
8:52 pm 20:52 Mostly Clear 80 26.7 57 13.9 45 45 SW 5 7 29.98 1015 10 16 0.00 0.00
9:52 pm 21:52 Clear 79 26.1 58 14.4 49 49 WSW 3 6 30.01 1016 10 16 0.00 0.00
10:52 pm 22:52 Clear 75 23.9 65 18.3 71 71 S 7 11 30.01 1016 10 16 0.00 0.00
11:52 pm 23:52 Mostly Clear 75 23.9 65 18.3 71 71 Calm 30.02 1017 10 16 0.00 0.00

Powered by AerisWeather